Total_Precipitation_Accumulation
2.18 2.24 2.11 2.12 2.11 2.32 2.73 3.23 3.21 3.38 3.40 3.09 2.66 2.47 2.50 2.36 2.32 2.27 1.91 1.96 2.14 2.20 2.20 2.19 2.15 2.09 2.10 2.02 1.83 1.65 1.43 1.29 1.12 0.89 0.71 0.63 0.68 0.63 0.49 0.39 0.31 0.24 0.21
2.01 1.99 1.95 2.12 2.17 2.12 2.28 2.70 2.89 3.23 3.24 2.92 2.45 2.24 2.22 2.27 2.16 2.15 1.89 1.91 2.04 1.92 1.93 2.17 2.38 2.43 2.35 2.23 2.09 1.90 1.66 1.50 1.30 1.00 0.84 0.78 0.63 0.59 0.60 0.48 0.36 0.26 0.20
1.72 1.71 1.79 1.79 1.86 1.82 1.88 2.06 2.31 2.58 2.57 2.46 2.38 2.31 2.24 2.14 1.97 1.96 2.01 1.94 1.69 1.75 1.84 1.97 2.17 2.31 2.46 2.59 2.52 2.26 1.97 1.67 1.38 1.08 0.84 0.71 0.61 0.49 0.44 0.44 0.43 0.35 0.23
1.21 1.31 1.35 1.34 1.35 1.25 1.37 1.66 1.75 1.96 2.21 2.33 2.44 2.28 2.20 2.24 2.03 1.98 1.95 1.94 1.90 1.64 1.88 1.92 1.92 1.98 2.26 2.57 2.68 2.72 2.38 1.95 1.59 1.32 1.02 0.77 0.64 0.53 0.42 0.39 0.43 0.42 0.30
1.08 1.14 1.21 1.30 1.08 1.05 1.12 1.07 1.41 1.60 1.85 1.98 1.75 1.88 1.80 1.86 1.78 1.58 1.59 1.47 1.65 1.64 1.74 1.73 1.78 1.76 1.98 2.49 2.93 3.16 2.95 2.43 1.92 1.61 1.43 1.16 0.95 0.74 0.56 0.46 0.41 0.39 0.33
1.14 1.23 1.09 1.10 0.98 1.12 1.25 1.35 1.58 1.52 1.49 1.59 1.39 1.61 1.51 1.40 1.44 1.37 1.25 1.26 1.32 1.22 1.42 1.58 1.66 1.43 1.66 2.17 2.68 3.04 3.17 2.99 2.51 2.03 1.83 1.68 1.51 1.14 0.80 0.62 0.50 0.44 0.38
1.30 1.37 1.12 1.36 1.21 1.18 1.24 1.26 1.38 1.38 1.27 1.25 1.60 1.78 1.44 1.13 1.12 1.01 0.99 1.13 1.20 1.23 1.44 1.67 1.69 1.63 1.44 1.46 1.64 2.16 2.75 3.23 3.23 2.71 2.31 2.10 1.96 1.54 1.04 0.86 0.76 0.61 0.53
1.26 1.16 1.34 1.21 1.23 1.32 1.35 1.40 1.48 1.47 1.31 1.26 1.57 1.90 1.66 1.62 1.47 0.83 0.93 1.06 1.16 1.36 1.43 1.42 1.55 1.72 1.47 1.59 1.16 1.24 1.91 2.51 3.13 3.11 2.67 2.30 2.17 1.87 1.40 1.14 0.98 0.85 0.75
1.17 1.20 1.20 1.20 1.37 1.18 1.40 1.55 1.51 1.56 1.52 1.37 1.39 1.65 1.69 1.66 1.46 1.14 0.93 0.92 1.09 1.39 1.43 1.49 1.40 1.51 1.61 1.82 1.70 1.30 1.42 1.63 2.30 3.04 3.14 2.66 2.19 1.90 1.68 1.52 1.32 1.05 0.93
1.14 1.13 1.14 1.26 1.40 1.21 1.47 1.20 1.26 1.49 1.58 1.43 1.36 1.24 1.27 1.43 1.54 1.48 1.24 1.02 1.04 1.18 1.27 1.19 1.21 1.39 1.47 1.55 1.58 1.18 0.97 1.05 1.66 2.54 3.02 2.98 2.58 2.14 1.83 1.76 1.84 1.70 1.35
1.25 1.09 1.15 1.25 1.30 1.22 1.28 1.28 1.52 1.43 1.40 1.38 1.39 1.39 1.41 1.31 1.14 1.25 1.35 1.32 1.23 0.99 0.92 0.97 1.10 1.26 1.29 1.38 1.62 1.26 0.98 1.02 1.20 1.56 1.97 2.32 2.47 2.30 2.04 2.07 2.41 2.63 2.40
1.25 1.20 1.26 1.28 1.22 1.16 1.20 1.22 1.34 1.36 1.42 1.48 1.36 1.25 1.32 1.27 1.18 1.24 1.11 1.10 1.18 0.91 0.80 0.83 0.94 1.11 1.18 1.31 1.31 1.13 1.14 1.27 1.27 1.26 1.30 1.47 1.77 1.97 2.02 2.12 2.40 2.83 3.07
1.08 1.15 1.23 1.35 1.28 1.27 1.25 1.32 1.30 1.27 1.34 1.40 1.29 1.16 1.13 1.03 1.11 1.21 1.23 1.07 1.03 0.82 0.86 0.80 0.86 0.92 0.93 1.26 1.54 1.53 1.33 1.40 1.31 1.22 1.19 1.19 1.30 1.50 1.60 1.71 2.01 2.39 2.77
1.16 1.15 1.21 1.20 1.21 1.23 1.22 1.48 1.29 1.19 1.23 1.22 1.11 1.29 1.23 0.94 0.97 1.09 1.22 1.34 1.25 1.04 1.05 0.99 1.00 1.05 1.06 1.22 1.46 1.60 1.35 1.34 1.19 1.09 1.05 1.02 1.04 1.13 1.25 1.32 1.43 1.58 1.78
1.28 1.24 1.16 1.11 1.16 1.24 1.31 1.41 1.32 1.32 1.34 1.20 1.13 1.24 1.17 0.98 0.95 0.92 1.11 1.39 1.55 1.41 1.28 1.19 1.20 1.22 1.20 1.24 1.38 1.27 1.33 1.35 1.24 1.13 1.03 0.96 0.94 0.91 0.92 0.99 1.06 1.08 1.09
1.10 1.16 1.14 1.08 1.13 1.21 1.31 1.39 1.42 1.52 1.58 1.44 1.30 1.29 1.22 1.11 1.15 1.01 1.06 1.28 1.49 1.63 1.53 1.16 1.20 1.21 1.29 1.18 1.37 1.28 1.32 1.37 1.23 1.13 1.03 0.98 0.95 0.92 0.91 0.92 0.97 1.04 1.05
1.07 1.10 1.14 1.16 1.18 1.23 1.32 1.36 1.33 1.52 1.66 1.68 1.50 1.42 1.37 1.36 1.35 1.23 1.25 1.32 1.40 1.59 1.61 1.34 1.28 1.40 1.47 1.40 1.43 1.39 1.31 1.34 1.26 1.20 1.05 0.98 0.94 0.91 0.93 0.91 0.91 0.92 0.96
1.20 1.22 1.24 1.31 1.29 1.28 1.35 1.34 1.25 1.30 1.48 1.69 1.88 1.92 1.71 1.62 1.59 1.45 1.43 1.39 1.40 1.53 1.61 1.56 1.47 1.53 1.54 1.51 1.49 1.32 1.12 1.07 1.13 1.24 1.16 1.05 0.99 0.93 0.89 0.88 0.88 0.88 0.89
1.45 1.48 1.50 1.46 1.45 1.47 1.45 1.40 1.38 1.41 1.49 1.56 1.74 1.93 1.93 1.96 1.78 1.71 1.62 1.53 1.49 1.45 1.57 1.57 1.50 1.64 1.67 1.66 1.54 1.24 1.14 1.17 1.05 1.20 1.19 1.02 0.92 0.89 0.85 0.81 0.79 0.81 0.81
1.66 1.68 1.71 1.67 1.63 1.65 1.63 1.58 1.53 1.52 1.55 1.55 1.56 1.62 1.73 1.95 1.93 1.88 1.76 1.71 1.70 1.70 1.73 1.70 1.65 1.75 1.92 1.98 1.78 1.44 1.29 1.24 1.14 1.00 1.05 0.95 0.90 0.87 0.83 0.78 0.75 0.73 0.74
1.86 1.96 1.92 1.83 1.80 1.80 1.67 1.71 1.83 1.82 1.85 1.70 1.59 1.52 1.50 1.68 1.76 1.77 1.62 1.65 1.76 1.82 1.85 1.84 1.81 1.88 1.97 2.07 1.80 1.54 1.35 1.28 1.21 1.06 0.97 0.86 0.84 0.82 0.87 0.90 0.86 0.78 0.74
2.10 2.03 1.96 1.96 1.93 1.77 1.86 1.87 1.79 1.82 1.97 1.97 1.84 1.76 1.63 1.52 1.52 1.56 1.61 1.65 1.69 1.71 1.77 1.82 1.78 1.82 1.89 1.95 2.00 1.80 1.54 1.34 1.22 1.10 1.06 0.96 0.91 0.88 0.81 0.77 0.86 0.83 0.76
2.02 1.94 1.98 2.02 1.96 1.97 1.91 1.71 1.59 1.60 1.66 1.75 1.82 1.80 1.60 1.45 1.51 1.46 1.61 1.65 1.57 1.52 1.48 1.53 1.59 1.66 1.97 2.17 2.33 2.08 1.82 1.64 1.43 1.28 1.18 1.02 0.94 0.88 0.79 0.77 0.87 0.76 0.70
1.84 1.79 1.79 1.71 1.67 1.66 1.66 1.49 1.44 1.39 1.37 1.35 1.45 1.56 1.53 1.43 1.42 1.45 1.38 1.26 1.20 1.21 1.19 1.13 1.19 1.39 1.69 2.12 2.36 2.36 2.28 2.06 1.82 1.48 1.23 1.06 0.89 0.83 0.78 0.74 0.83 0.79 0.72
1.63 1.48 1.40 1.39 1.40 1.47 1.60 1.43 1.35 1.30 1.34 1.25 1.24 1.24 1.24 1.17 1.23 1.22 1.13 1.01 0.95 0.95 0.96 0.97 0.99 1.15 1.38 1.67 2.02 2.17 2.12 1.91 1.64 1.32 1.10 0.96 0.85 0.83 0.77 0.71 0.73 0.83 0.77
1.56 1.52 1.44 1.37 1.36 1.38 1.52 1.34 1.24 1.22 1.28 1.24 1.23 1.26 1.35 1.19 1.08 0.94 0.90 0.91 0.82 0.78 0.82 0.82 0.83 0.89 1.01 1.22 1.60 1.72 1.71 1.70 1.52 1.28 1.02 0.94 0.86 0.93 0.88 0.76 0.69 0.70 0.71